GFSNW_925_spd_051.txt.gz
Wind_Speed
47 46 48 42 43 42 33 10 5 25 34 7 6 14 7 6 15 1 3 3 4 4 7 7 8 9 8 8 10 9 7 6 4 9 2 2 2 5 5 4 4 1 4 6
46 48 52 47 39 43 28 8 5 24 31 13 13 8 17 7 6 6 6 4 1 4 2 4 7 8 4 7 8 10 8 1 3 6 5 4 4 5 4 4 4 6 5 6
48 50 52 48 48 44 25 5 6 5 10 13 20 20 13 23 14 11 3 3 3 2 3 6 6 7 4 7 8 5 9 5 8 8 8 4 4 5 5 6 3 4 6 6
50 53 53 55 55 51 28 4 7 7 13 20 17 20 12 16 16 10 7 5 9 3 3 3 4 2 3 1 6 5 5 6 5 6 4 5 4 3 7 5 5 6 6 7
49 52 51 54 56 46 22 8 3 4 2 17 28 18 22 25 22 8 10 15 3 10 9 7 3 4 3 6 2 5 1 3 3 2 3 2 4 7 6 6 4 6 5 5
55 51 50 47 52 49 6 13 3 2 7 17 19 29 20 21 17 14 15 15 16 11 13 8 10 8 3 6 10 6 6 6 4 4 2 3 5 8 7 6 4 5 6 8
57 53 48 45 48 60 7 18 2 2 4 15 23 19 23 19 20 20 13 20 9 6 3 1 4 6 8 7 5 4 7 6 3 3 2 2 6 4 5 5 2 4 4 5
55 52 50 45 49 53 37 25 3 2 3 9 11 14 21 15 14 19 20 16 9 4 2 2 4 5 4 3 6 5 2 6 3 5 4 5 1 3 7 6 3 2 6 7
49 48 48 47 41 46 46 21 11 1 3 8 7 18 14 16 13 10 18 7 5 4 3 3 7 5 5 4 3 5 6 6 5 3 5 7 8 4 5 5 2 6 5 7
44 43 41 40 39 42 40 13 11 4 2 3 7 12 8 11 14 6 3 9 5 2 3 2 4 4 5 7 10 5 3 3 5 3 3 7 7 5 5 6 8 8 7 6
43 42 40 41 40 45 43 11 18 4 1 5 5 6 4 10 13 10 4 4 2 3 4 3 4 3 5 4 6 8 7 7 4 3 3 6 5 4 8 6 3 6 6 5
37 38 41 42 34 38 40 8 25 9 1 3 10 15 20 11 2 6 4 2 6 6 3 2 2 2 1 4 3 1 2 6 6 8 6 2 3 4 1 3 9 5 7 6
35 37 37 36 37 34 36 17 25 7 3 6 2 6 4 8 18 21 5 2 2 2 3 4 2 3 3 3 4 3 2 3 4 4 2 1 3 4 5 4 6 6 6 12
30 30 31 33 32 32 33 19 20 19 2 2 5 6 8 14 13 22 24 6 5 5 2 3 3 3 4 3 2 2 4 6 6 2 1 4 5 4 6 9 10 12 11 9
24 30 34 33 37 38 25 20 22 19 6 2 5 15 11 11 12 14 21 9 6 3 3 3 3 3 3 2 2 2 4 7 6 5 12 5 5 7 7 11 9 10 15 12
25 29 46 41 36 29 19 3 10 20 6 1 3 5 4 6 7 9 5 5 3 3 4 3 2 2 3 4 4 5 3 3 4 6 12 8 13 8 5 11 10 11 13 13
28 30 32 32 29 27 5 6 4 28 10 2 3 5 4 4 1 2 2 3 3 3 3 2 2 1 3 3 4 4 4 7 12 16 18 10 4 6 9 13 16 20 19 18
29 28 27 27 23 7 6 10 10 31 7 2 3 4 4 5 1 1 2 3 1 4 3 1 2 1 2 2 1 7 10 13 10 7 9 12 17 14 13 18 19 16 14 12
27 26 25 19 3 0 3 10 31 12 4 5 3 2 3 1 2 1 3 2 2 2 0 1 3 2 2 2 2 7 13 5 13 14 18 17 17 16 14 14 13 15 11 10
21 21 4 3 10 15 20 3 3 2 2 2 2 1 2 1 0 2 1 2 2 2 4 2 3 2 4 3 5 6 9 16 18 19 12 15 15 14 13 12 11 11 10 14
8 4 3 14 27 6 2 2 2 2 2 3 3 3 4 1 3 3 3 2 3 4 2 4 3 2 3 4 9 8 9 10 5 11 13 11 17 17 15 13 15 17 16 15
12 8 22 10 3 3 2 2 2 4 4 1 3 3 1 1 3 3 3 3 2 2 3 3 3 2 6 7 12 11 8 11 14 17 17 18 18 19 19 18 17 16 17 21
2 5 5 2 1 4 6 6 2 2 2 2 1 1 1 2 4 2 3 5 1 1 2 2 1 3 6 8 11 12 12 16 16 17 22 23 22 22 23 19 18 20 19 18
3 2 4 3 2 2 0 0 1 2 2 0 3 2 2 0 3 1 5 1 2 2 1 4 1 6 10 10 10 15 14 14 16 16 20 21 22 19 20 21 22 22 17 16
4 4 5 4 1 1 2 1 1 3 1 1 2 2 2 2 3 2 3 2 3 4 3 1 4 10 12 11 12 13 13 12 13 18 18 20 20 20 19 18 19 21 21 20
4 6 4 4 2 4 4 4 3 4 2 1 3 3 4 3 2 2 2 3 1 0 1 3 9 11 11 12 11 11 14 16 17 18 20 20 19 19 18 18 19 20 20 19
5 3 3 3 1 3 3 4 4 4 2 2 2 5 3 1 3 3 4 3 2 2 3 5 9 10 11 11 12 15 18 18 18 19 19 20 21 24 20 16 14 15 16 16

GFSNW_925_spd_057.txt.gz
Wind_Speed
54 55 51 46 42 41 39 13 9 24 38 13 9 18 18 6 18 1 3 1 3 3 5 5 6 11 7 9 13 10 6 4 4 6 1 1 2 6 5 3 3 0 1 5
56 58 55 51 46 47 32 6 5 23 33 14 16 16 22 14 9 12 6 4 2 2 1 3 5 6 4 9 8 11 8 2 2 1 1 2 3 4 4 5 3 7 4 4
57 61 58 55 52 52 32 5 6 6 12 14 19 21 20 24 16 4 3 3 1 2 2 2 2 5 3 7 4 5 10 4 6 10 7 4 4 6 7 6 3 5 7 8
59 63 62 58 56 58 28 5 5 6 11 21 18 20 18 26 14 19 8 3 6 2 4 2 2 2 3 2 4 4 5 7 6 4 4 5 5 5 12 11 10 8 11 10
59 66 64 60 56 59 20 8 5 3 5 24 21 19 21 26 23 11 18 12 9 10 6 2 4 4 1 1 2 2 2 5 5 3 2 7 5 8 7 7 4 9 8 7
54 67 65 61 57 60 9 9 6 7 16 18 18 21 21 15 17 16 9 14 3 3 13 3 2 2 4 5 2 5 4 5 4 5 2 5 4 7 9 5 5 6 8 11
59 66 64 60 61 65 15 19 5 7 5 14 18 22 16 23 21 8 19 3 12 4 0 2 2 3 2 4 5 5 5 5 2 3 1 4 3 1 3 9 6 8 4 4
63 65 64 61 60 64 20 23 4 5 4 11 15 17 20 5 15 19 9 11 5 0 1 1 1 2 2 1 1 4 3 5 3 5 4 3 2 5 7 7 11 7 11 5
65 63 60 60 57 56 28 26 11 3 8 7 6 18 18 13 9 5 4 2 3 5 2 2 5 5 4 2 2 3 5 4 3 3 5 8 8 4 6 4 8 8 11 11
62 60 56 55 54 51 31 12 12 3 3 1 6 13 12 14 5 4 4 10 3 4 2 1 3 3 4 3 5 5 3 2 7 3 4 5 6 5 6 6 9 5 12 12
56 54 51 51 53 49 29 16 15 3 2 3 3 3 5 8 13 7 4 4 3 2 4 3 3 3 5 4 4 4 6 7 4 3 1 7 7 6 9 7 3 6 10 11
49 47 45 49 51 49 27 9 17 5 2 1 2 4 9 4 19 11 8 5 6 6 3 3 2 3 1 5 9 2 4 6 5 9 6 2 13 4 5 3 4 6 12 12
42 44 48 41 47 44 22 12 10 6 2 2 0 4 3 4 10 13 5 2 4 4 2 4 3 4 5 4 5 4 4 4 3 2 4 5 5 3 3 2 4 4 6 16
40 47 40 36 34 34 24 14 10 10 2 1 3 2 6 6 13 11 8 4 4 4 2 2 2 2 4 4 4 5 3 8 6 4 4 4 10 10 3 3 4 10 11 12
40 39 36 33 34 31 22 16 11 16 1 1 2 4 10 12 13 11 14 7 2 2 2 2 3 2 2 1 0 3 5 6 5 6 8 6 5 8 12 11 9 12 18 14
35 35 36 33 35 32 22 2 10 19 13 1 1 5 6 5 11 14 10 7 4 3 3 3 3 2 4 4 5 4 8 7 3 3 4 3 5 7 7 9 13 11 15 17
30 30 30 32 34 30 5 6 5 30 20 3 2 2 4 11 7 3 3 6 3 3 3 3 3 3 3 2 9 4 4 4 4 6 9 1 6 5 9 14 13 19 20 20
28 30 29 29 27 12 6 10 10 35 5 2 2 3 3 2 3 3 1 3 3 3 3 1 3 2 1 5 4 3 3 3 5 6 3 1 12 14 13 15 16 17 16 17
27 32 31 26 5 2 7 17 25 20 10 3 2 2 2 2 1 2 2 2 2 1 3 3 5 4 8 5 6 8 10 6 8 7 9 12 13 15 15 16 15 18 16 15
33 26 4 2 8 10 20 11 3 2 1 2 2 2 1 1 1 1 2 1 2 2 3 4 4 4 2 3 4 6 8 11 14 9 7 12 13 13 13 12 12 14 15 15
4 3 3 5 24 5 2 3 3 3 3 3 3 4 1 2 2 2 2 1 1 2 3 4 3 3 3 7 8 8 9 11 5 5 8 8 16 17 15 13 13 16 19 16
4 5 12 12 4 2 4 4 2 5 6 3 4 3 2 1 2 2 2 1 0 3 1 0 2 3 7 3 6 7 7 8 10 12 14 13 14 16 15 15 15 20 25 26
3 2 3 1 2 7 5 7 3 3 3 3 3 2 3 1 2 2 2 3 3 2 1 1 2 4 4 6 7 9 8 8 11 16 19 21 20 21 21 18 23 26 24 23
2 2 4 2 3 3 2 2 2 1 1 2 2 2 2 2 2 2 3 1 0 0 0 2 3 3 3 7 7 11 10 9 16 15 15 16 18 18 21 24 25 25 21 18
3 3 3 4 3 3 3 1 2 2 0 1 3 3 2 2 3 1 2 2 3 3 2 3 2 3 5 7 9 10 10 10 11 12 14 16 20 21 21 20 21 23 24 22
3 6 5 5 4 6 5 6 3 3 2 0 2 3 3 2 2 3 4 2 3 3 3 2 3 5 7 8 10 11 11 12 14 18 20 22 21 20 22 21 21 21 22 20
4 4 8 5 2 3 4 4 5 3 1 2 3 5 3 3 4 4 4 4 5 5 4 4 7 7 7 10 11 11 16 17 20 22 23 24 23 24 24 19 16 16 17 18

GFSNW_925_spd_060.txt.gz
Wind_Speed
54 53 51 52 51 44 38 13 8 27 40 10 6 19 31 13 21 11 6 3 4 5 8 14 17 17 17 21 22 22 16 8 8 13 4 3 6 9 11 5 5 3 3 6
46 55 54 56 56 53 37 7 3 29 31 14 15 22 28 28 18 22 8 7 5 2 4 7 17 11 10 12 22 21 14 10 9 9 6 5 8 10 11 6 2 11 6 4
48 50 57 59 62 57 36 6 6 5 12 20 29 20 23 30 24 17 18 5 7 3 3 6 5 8 3 11 20 5 18 13 19 13 12 9 12 14 15 13 7 10 11 15
49 52 54 62 65 60 35 7 8 11 17 19 27 29 21 30 20 25 15 17 11 11 4 2 4 3 5 5 4 8 13 18 16 15 13 13 16 15 15 17 17 15 12 12
51 51 55 65 67 63 25 5 12 14 15 28 33 26 25 30 31 23 23 15 19 10 3 2 4 2 2 2 4 7 6 11 12 16 14 13 16 16 17 17 17 12 16 14
52 51 58 68 68 64 10 12 14 13 14 25 22 23 27 26 28 22 24 18 9 12 14 8 7 5 6 4 2 6 6 8 6 12 6 6 7 15 16 15 14 15 15 14
53 52 54 70 70 66 25 15 14 11 13 14 21 30 24 29 26 25 11 20 17 7 3 8 5 5 9 9 8 9 6 12 6 5 4 7 8 2 14 18 16 16 15 13
54 52 52 71 71 67 29 22 13 9 10 18 21 26 31 20 19 24 18 9 13 7 3 5 7 4 3 7 7 10 12 8 4 5 9 10 5 5 9 11 16 18 19 17
53 53 55 68 70 65 28 29 23 5 10 16 20 21 25 20 18 19 15 13 7 7 3 5 9 8 7 7 7 2 7 8 6 4 6 9 8 14 12 6 13 11 12 13
50 53 63 69 66 58 31 22 19 9 8 6 16 17 20 23 18 14 15 10 9 7 4 3 5 7 5 8 8 6 5 3 11 8 6 5 4 8 11 9 15 2 10 10
47 57 65 65 62 53 27 20 17 12 7 9 2 16 17 22 15 14 16 9 6 6 8 6 5 4 5 5 6 6 8 9 5 6 6 10 10 11 10 12 2 7 10 11
58 63 60 59 55 47 26 14 16 8 1 4 5 3 8 16 26 12 15 9 16 7 7 6 5 3 1 7 8 5 5 5 2 8 5 2 19 12 16 4 6 6 10 11
57 56 54 49 49 43 28 22 19 10 2 2 2 4 6 5 12 20 8 8 7 8 5 5 4 4 6 5 7 8 6 3 4 4 10 10 8 13 5 7 6 3 6 13
51 50 50 52 42 27 31 19 14 14 4 3 3 7 4 8 9 13 12 8 7 5 5 4 3 3 5 6 11 10 10 10 12 16 14 5 11 13 15 11 7 7 9 14
42 42 45 50 33 27 30 24 12 11 2 2 3 5 5 7 9 15 16 8 9 5 4 2 4 3 3 2 2 7 8 11 6 8 10 9 12 4 14 15 14 11 14 16
37 35 39 44 39 34 21 4 4 6 7 2 2 7 9 11 10 14 15 13 8 4 3 3 4 3 5 4 9 15 16 14 14 15 6 8 1 2 5 11 11 13 15 17
42 40 40 35 32 21 4 4 12 16 10 3 2 3 4 12 14 6 5 10 8 8 7 5 6 4 5 4 11 12 9 12 14 6 4 5 7 3 6 6 9 10 13 17
41 41 40 35 19 13 9 7 19 20 5 1 3 3 3 11 7 5 6 6 4 4 4 1 8 6 3 6 14 18 19 13 8 11 8 7 1 5 7 9 12 14 15 16
35 36 30 18 5 2 4 7 23 10 2 3 2 3 3 5 3 3 2 2 3 1 3 5 4 7 8 8 14 12 12 12 11 8 6 6 7 8 10 13 15 15 14 15
38 20 4 3 7 16 20 5 3 3 3 3 3 1 4 4 5 4 4 1 3 3 4 4 4 10 14 12 7 7 8 9 6 6 5 7 7 9 10 11 10 12 15 15
5 2 2 6 17 4 3 4 3 4 4 6 5 5 5 1 2 3 2 3 4 4 3 3 3 1 4 14 10 7 4 3 5 3 4 6 6 12 13 11 12 13 17 17
2 6 10 7 4 2 2 4 3 6 5 5 3 2 3 3 3 2 2 2 1 2 2 1 1 3 9 8 4 5 4 4 4 4 7 8 10 10 12 14 16 20 24 27
3 3 3 1 1 3 5 8 4 4 2 4 3 2 1 1 3 3 1 2 2 1 1 1 2 5 7 7 5 8 9 11 12 13 14 15 17 20 18 14 21 25 23 22
3 2 4 2 2 3 3 3 3 2 1 4 3 3 2 1 2 0 2 2 1 3 2 3 3 6 7 7 6 9 11 12 13 13 14 14 15 18 22 22 22 26 24 23
5 4 5 4 4 4 5 2 2 3 2 2 2 2 1 2 2 2 2 3 3 5 3 4 5 5 4 6 8 10 10 11 12 11 13 15 20 22 23 23 25 27 26 24
3 6 6 8 4 9 6 7 4 4 2 0 1 2 2 3 2 3 5 2 5 4 4 6 4 7 8 9 10 11 11 12 14 18 21 22 22 23 25 26 25 23 22 20
4 4 8 7 3 5 7 7 6 3 1 2 2 4 5 2 4 3 5 4 6 6 5 5 8 9 10 11 12 12 17 18 22 24 24 25 26 26 25 20 20 21 21 20

GFSNW_925_spd_063.txt.gz
Wind_Speed
50 50 48 48 48 47 43 15 10 20 34 11 12 19 26 31 33 18 15 11 19 11 13 17 9 22 22 16 21 25 21 12 12 17 16 20 13 18 17 9 11 7 8 11
42 48 50 51 52 56 37 7 5 24 37 14 17 31 33 28 30 26 20 14 11 12 9 10 18 9 10 8 24 24 19 11 13 16 10 9 12 13 13 14 11 11 8 7
44 45 52 54 57 62 39 6 7 6 14 21 31 31 27 30 30 29 21 16 8 9 10 10 6 16 8 6 14 14 18 15 17 15 16 15 18 17 18 16 9 12 14 16
46 46 47 59 61 67 39 8 8 10 14 25 30 29 27 33 32 32 22 21 18 12 8 10 11 10 6 5 6 7 19 21 19 20 17 13 16 20 20 20 19 17 15 17
49 47 47 56 66 72 26 8 12 13 10 25 32 27 32 34 31 30 30 22 22 17 10 7 9 6 7 8 11 14 19 16 21 19 19 18 13 16 18 19 18 17 19 19
50 50 51 54 61 72 8 15 21 14 16 28 23 25 31 31 30 31 28 28 18 20 10 4 3 6 3 5 3 14 16 14 16 17 19 19 18 18 18 18 17 15 17 16
55 55 54 54 57 70 25 27 18 7 13 18 26 29 32 35 31 29 27 23 22 9 6 3 3 5 3 9 9 8 13 16 11 7 2 12 11 16 19 21 20 16 17 18
59 57 55 55 56 65 39 24 17 8 9 19 20 28 26 29 27 21 26 17 19 9 4 5 4 2 6 8 12 10 10 11 10 8 11 13 15 8 12 15 16 16 17 17
48 54 54 54 54 61 47 32 27 9 11 15 22 20 24 20 21 21 25 20 10 8 6 8 8 8 13 9 5 8 10 11 9 6 14 17 12 16 11 14 13 17 16 8
47 53 54 55 53 63 37 30 28 9 10 5 15 15 21 24 20 17 18 20 12 13 9 9 9 12 15 16 15 6 6 6 13 11 8 8 10 13 11 11 11 9 5 6
47 50 51 53 65 62 33 27 27 15 6 11 4 14 16 17 20 15 15 11 11 10 10 8 6 4 11 12 15 12 10 9 5 8 9 11 6 9 13 14 14 7 9 8
49 49 52 52 64 61 33 22 22 15 2 4 6 2 13 5 26 15 11 13 15 8 9 6 6 4 1 8 11 11 8 10 9 9 5 6 14 11 17 9 8 6 8 7
46 47 49 54 58 48 33 24 21 15 3 3 4 7 8 7 10 18 13 13 14 16 13 6 4 5 7 6 10 15 13 7 4 6 11 12 10 12 13 8 8 8 6 8
43 49 53 60 48 31 35 24 19 19 5 3 5 8 7 6 3 13 15 16 14 10 9 6 4 4 6 7 10 10 11 8 10 17 19 18 10 9 13 13 11 10 8 10
44 50 57 57 33 28 28 23 14 9 3 4 6 7 3 6 11 19 15 13 13 7 8 3 5 7 6 5 7 10 13 13 9 9 9 9 14 13 9 15 16 12 12 12
50 48 48 43 37 35 28 3 8 12 9 2 4 4 8 5 2 13 17 13 7 9 7 7 7 11 9 4 9 12 15 17 14 14 14 12 10 6 7 10 10 10 11 11
48 48 45 40 32 18 5 4 14 14 7 2 1 3 9 20 9 4 8 16 10 8 5 4 7 8 5 5 10 10 10 13 16 14 11 8 12 7 1 4 3 2 7 9
40 44 35 28 25 15 10 14 19 10 4 1 2 2 3 14 6 5 7 9 10 8 6 5 8 5 4 5 13 19 18 19 18 16 10 11 9 4 3 3 3 6 7 8
43 37 30 22 8 4 6 14 8 6 3 3 3 3 3 2 8 3 6 6 8 3 7 9 5 8 8 6 14 14 13 12 14 16 15 9 8 9 4 4 5 7 8 10
39 24 4 4 5 27 19 3 1 2 1 2 2 2 2 3 1 4 2 3 6 5 5 5 5 10 13 4 13 13 8 13 12 5 7 6 8 6 4 5 5 6 9 11
3 3 3 15 18 2 2 3 2 3 2 4 4 6 2 3 2 1 2 2 2 4 4 7 3 3 6 14 12 11 10 8 7 6 6 6 5 3 3 4 5 8 10 9
4 14 15 5 1 2 1 4 3 5 4 5 5 5 3 2 1 5 1 4 3 4 4 3 3 2 7 10 10 13 12 9 7 7 7 9 10 10 12 12 15 20 22 25
2 3 3 2 2 4 4 6 4 3 2 2 3 4 4 3 7 1 3 3 2 3 3 2 3 5 6 7 5 8 10 10 12 13 17 20 20 23 23 16 22 25 25 26
3 2 3 3 3 6 6 5 5 2 2 3 6 3 2 2 1 1 3 3 1 2 2 4 5 7 6 6 7 9 10 11 12 13 14 17 17 19 23 22 23 25 24 24
5 5 4 6 4 6 6 6 3 4 5 2 3 2 1 2 2 3 1 3 4 6 4 4 6 7 7 7 8 9 10 10 12 12 14 17 23 23 24 25 26 27 26 25
4 8 5 9 5 8 8 6 5 5 5 2 2 2 2 4 2 3 6 4 6 4 4 6 5 8 9 10 10 11 11 13 15 20 24 25 25 24 27 28 26 25 25 24
5 4 8 8 4 7 7 7 6 6 4 4 3 5 5 2 4 4 5 4 5 7 7 7 9 10 10 11 12 12 17 19 23 25 25 26 25 26 27 22 23 24 25 25

GFSNW_925_spd_069.txt.gz
Wind_Speed
42 43 41 40 39 37 38 11 6 25 36 11 10 22 26 13 14 14 17 16 20 18 18 15 15 11 9 10 7 21 17 3 12 17 18 18 14 10 8 4 5 4 5 5
43 42 43 42 42 42 33 6 4 25 34 14 20 18 24 24 18 19 11 12 10 15 16 9 3 10 7 9 11 11 8 5 7 11 15 16 17 7 10 8 4 6 6 5
43 42 41 43 43 45 37 6 6 5 14 15 19 20 20 20 18 20 22 16 18 21 15 14 6 7 1 4 8 17 10 9 16 14 10 6 4 7 9 8 4 4 6 6
35 37 39 38 41 46 41 6 6 8 15 24 20 19 11 23 18 24 11 11 21 18 13 6 3 4 6 7 5 6 9 15 17 16 17 18 19 14 15 16 11 7 5 8
37 37 39 42 44 49 33 5 5 8 1 14 22 20 24 22 24 14 28 22 17 12 14 7 5 8 5 7 7 7 8 6 10 16 14 18 14 15 14 12 8 5 16 13
40 40 40 42 45 50 16 9 17 10 16 15 16 28 27 21 16 22 19 19 15 17 17 6 1 2 10 6 6 10 6 5 6 12 14 15 6 18 13 14 11 10 9 9
44 43 44 46 47 49 13 11 10 3 9 13 21 19 21 22 21 19 14 19 17 24 2 5 4 7 11 14 10 5 6 6 2 4 1 15 6 10 13 15 7 5 3 3
45 46 47 49 49 49 32 14 12 6 4 20 12 20 22 21 21 18 20 18 17 4 1 2 2 3 3 8 5 7 1 5 3 9 10 7 8 4 5 6 8 5 5 6
42 44 47 51 50 47 40 16 29 6 3 13 20 19 18 15 19 18 20 12 7 6 4 2 5 5 7 6 3 1 0 5 4 2 5 14 2 6 9 4 5 5 2 5
41 43 48 51 51 46 37 15 32 6 8 3 18 15 16 16 14 13 8 6 4 3 3 6 4 4 4 7 10 4 2 1 5 2 2 6 6 8 5 5 6 6 4 5
43 43 44 49 50 45 42 16 36 15 7 4 4 5 8 11 14 12 3 4 4 2 5 6 4 4 6 4 4 7 5 5 3 3 5 13 6 3 7 6 8 6 3 3
44 45 42 46 48 45 41 9 36 32 3 4 5 7 6 4 1 4 8 5 3 3 4 5 4 3 1 6 3 4 5 6 5 7 4 6 7 5 3 1 1 4 2 3
44 41 46 47 44 46 32 21 28 13 3 3 2 2 3 6 10 11 7 3 7 6 5 2 4 4 3 5 9 5 5 4 4 1 5 2 7 11 13 6 3 4 3 5
37 41 44 44 46 50 31 24 30 14 2 3 1 6 2 5 13 12 3 5 8 6 3 3 4 4 4 4 5 5 5 9 7 3 3 5 3 8 12 12 8 8 8 6
39 44 45 45 50 41 30 23 28 14 1 3 2 6 3 22 4 7 12 6 4 3 2 2 4 3 2 2 1 4 4 6 5 5 9 8 8 14 8 7 15 6 4 6
48 46 51 46 39 38 23 3 17 14 9 3 2 1 4 4 2 5 6 4 3 3 3 3 3 6 4 1 3 3 1 1 5 3 2 7 6 10 8 5 3 6 8 5
49 49 43 33 30 26 2 4 14 15 9 3 2 2 2 7 3 2 3 3 1 2 3 2 1 7 2 2 2 3 4 5 6 5 7 4 1 4 6 6 6 6 6 6
48 47 37 29 24 15 10 21 23 15 8 2 2 0 3 3 2 2 3 3 2 0 3 0 2 4 2 1 4 5 11 11 9 9 4 4 5 7 6 7 7 8 7 6
44 37 28 19 12 4 5 20 19 13 2 2 2 3 2 3 1 1 0 3 2 2 3 2 1 3 1 8 12 14 15 11 10 8 11 10 10 7 8 9 8 9 8 12
22 15 4 3 5 11 12 7 3 4 2 2 1 1 3 2 2 2 2 1 3 3 5 4 2 2 8 12 11 12 14 15 16 8 6 7 6 9 9 12 11 13 13 15
4 3 4 7 3 3 3 2 3 2 1 1 2 2 3 3 3 1 1 1 2 3 3 6 4 2 5 11 11 11 13 11 12 10 12 13 10 9 10 12 13 14 15 16
8 14 8 3 3 3 5 1 2 1 1 0 2 3 3 0 1 2 2 2 1 2 1 4 3 3 8 9 10 11 11 10 11 12 13 14 16 13 13 13 13 16 21 23
4 4 4 3 4 6 4 2 3 3 5 5 3 2 1 2 2 2 1 2 3 2 2 3 4 6 8 8 8 10 10 10 12 14 16 19 19 22 20 15 21 25 25 24
4 4 6 4 5 4 3 3 3 3 3 6 4 1 1 1 1 1 1 1 2 3 4 3 4 6 6 7 8 9 11 12 12 13 13 15 17 19 25 25 24 27 25 23
4 5 5 5 3 5 3 3 3 3 4 3 2 2 1 2 1 3 3 4 5 5 3 3 5 8 8 9 9 10 10 10 10 12 13 17 22 24 25 28 29 30 29 29
4 7 4 5 4 4 4 4 3 3 5 2 2 0 2 4 3 4 6 3 5 3 3 5 6 9 9 10 11 10 12 14 15 19 22 24 24 24 26 30 30 29 29 28
5 3 3 3 2 3 4 4 5 4 3 3 3 5 4 3 4 4 4 3 3 4 6 7 10 10 11 11 12 15 18 18 20 22 23 24 25 27 28 21 25 28 28 29

GFSNW_925_spd_075.txt.gz
Wind_Speed
39 37 34 31 29 26 25 8 5 28 38 7 4 14 12 12 12 11 12 4 8 9 5 4 4 8 4 14 5 6 9 6 10 10 3 3 5 6 6 5 3 1 5 7
40 38 35 33 31 29 13 4 3 22 29 10 12 12 15 16 12 11 3 4 9 5 4 4 7 6 5 11 7 5 6 6 1 5 5 5 5 5 4 4 3 8 6 6
39 38 36 35 35 33 30 3 5 4 7 4 19 17 10 20 11 16 7 6 4 7 4 4 5 8 5 5 13 17 6 5 15 17 3 5 4 1 1 6 6 5 7 10
37 38 37 36 36 35 31 4 5 5 8 16 13 21 11 17 17 15 14 12 18 11 6 8 7 10 7 9 13 7 4 9 5 12 13 5 3 3 1 5 13 13 11 16
34 39 38 41 38 36 25 5 4 4 2 14 21 17 20 19 19 15 15 10 6 13 22 20 8 6 4 3 6 6 7 5 3 8 10 12 16 10 7 5 9 5 4 9
29 30 30 30 31 37 11 13 6 4 10 13 16 25 19 21 16 12 18 14 16 14 14 14 15 11 12 7 4 2 4 5 3 4 5 4 8 9 17 6 6 6 5 7
33 34 34 34 36 36 25 10 7 4 7 14 19 18 25 20 22 17 9 20 16 15 9 7 13 13 16 12 12 7 6 2 0 2 4 5 4 10 18 14 15 14 7 8
37 38 39 39 38 39 33 13 9 7 9 10 16 18 21 20 17 17 17 13 8 7 5 4 7 4 3 10 16 13 10 3 1 3 4 4 1 4 6 7 14 10 11 12
42 42 41 41 42 40 38 26 21 3 9 13 14 18 16 12 15 15 18 11 6 5 4 4 5 4 3 3 2 7 7 5 5 3 4 5 5 13 6 1 5 5 6 6
42 43 43 43 45 42 34 18 30 4 2 4 14 14 13 8 10 4 4 11 7 6 2 2 4 5 4 4 2 4 4 2 6 4 4 7 8 5 6 4 6 10 6 8
36 39 44 43 45 46 41 26 31 8 1 2 6 15 12 10 13 7 5 4 2 3 7 3 4 3 6 2 3 1 4 5 3 3 3 6 4 1 5 4 3 2 6 6
34 37 42 45 44 48 44 12 30 21 3 1 5 18 31 31 24 12 8 8 6 6 4 3 2 1 1 5 3 2 3 6 4 6 5 5 4 2 2 2 2 4 0 3
34 37 38 46 44 48 45 18 30 13 2 3 2 6 22 36 25 23 5 2 4 3 4 4 3 3 4 3 4 4 4 2 2 3 5 9 7 3 6 7 6 5 4 2
33 35 42 43 46 47 40 29 30 15 3 2 4 15 6 27 31 26 15 5 4 4 2 3 3 3 4 3 4 4 5 1 3 4 7 6 6 8 7 10 8 4 4 3
34 41 44 43 44 44 34 26 33 22 5 5 2 5 4 5 19 19 19 7 4 3 2 2 3 2 2 0 1 1 3 6 2 7 9 6 7 8 7 4 3 4 2 5
45 43 42 42 43 43 29 4 23 31 6 2 4 2 3 1 16 8 6 4 2 3 4 3 2 2 3 2 4 2 4 6 7 7 17 7 10 7 4 4 3 3 5 5
41 41 41 44 43 36 6 4 6 36 10 2 1 3 1 3 4 2 2 2 3 2 2 2 3 2 3 3 3 5 8 9 13 10 17 7 1 3 1 7 8 11 10 13
40 41 43 36 32 20 4 6 32 28 6 3 2 3 3 1 2 2 1 2 2 2 1 1 3 1 2 1 8 11 13 12 6 16 17 16 4 10 9 8 8 12 11 9
42 41 32 19 2 2 7 32 29 21 7 3 3 3 3 2 2 3 3 1 2 1 2 2 3 2 1 5 8 8 10 10 13 17 12 11 12 10 12 11 12 12 10 11
26 11 3 3 2 25 15 8 3 1 3 3 3 2 3 3 1 2 2 1 2 2 3 2 3 3 7 10 9 8 10 9 12 12 8 12 10 11 12 14 11 12 10 11
1 3 3 12 5 2 3 3 3 1 4 4 1 3 4 4 3 2 1 2 2 2 3 4 2 3 6 10 9 9 9 8 7 5 5 7 10 8 9 12 13 12 14 14
8 10 6 4 3 3 6 2 3 5 3 3 3 3 3 2 1 2 1 2 2 3 2 3 3 3 6 9 10 11 9 9 8 8 10 12 13 11 11 13 14 17 22 22
4 4 5 4 5 12 6 5 3 3 4 5 4 3 2 2 3 2 2 2 1 3 3 3 2 4 5 7 7 8 9 8 10 11 15 19 17 18 18 14 20 23 24 24
5 5 8 4 5 4 3 3 2 2 2 4 2 1 1 1 2 1 2 3 4 3 3 2 3 6 7 8 7 7 9 9 11 12 13 13 17 18 22 23 23 26 25 25
5 5 6 5 2 2 3 4 2 3 4 2 0 0 1 4 4 3 4 5 4 4 2 2 3 6 6 6 7 8 8 8 10 11 11 16 21 22 23 25 27 29 29 29
4 7 4 3 3 5 4 5 4 3 5 2 1 3 4 5 3 5 5 3 3 2 2 4 4 6 6 8 9 9 11 12 14 17 18 21 23 23 25 29 29 28 29 28
5 3 2 1 1 2 3 4 6 5 3 3 3 5 4 3 3 4 4 3 2 3 4 5 8 9 8 9 9 12 13 15 18 19 20 22 23 26 27 21 24 28 28 29